Notices

What's New in latest Release from April 7th, 2021:

- Updated Glossary, including Speed of Maximum Gust, and Total Hourly Precipitation

- Updated national and regional climate services offices contacts and prices information

- Addition of station inventory lists for 1981-2010, 1971-2000, and 1961-1990 Normals.

If you haven't already, please take our survey and provide feedback about our website: https://eccc.sondage-survey.ca/f/LanguageSelection.aspx?s=442ca660-fcf1-47c0-95a9-59707d6fd709

Hourly Data Report for April 20, 2020

MIRAMICHI RCS
NEW BRUNSWICK
Current Station Operator: ECCC - MSC

47°00'34.000" N
65°27'54.000" W
33.00 m
8100989
71744
ACQ

Download Data

Hourly Data (April 2020)
Hourly Data Report for April 20, 2020
TIME
LST
Temp Definition
°C
Dew Point Definition
°C
Rel Hum Definition
%
Precip. Amount Definition
mm

Wind Dir Definition
10's deg

Wind Spd Definition
km/h
Visibility Definition
km
Stn Press Definition
kPa
Hmdx Definition


Wind Chill Definition


Weather Definition


00:00 -1.1 -4.4 78 LegendMM 6 5   99.44   -3 LegendNANA
01:00 -1.5 -4.4 81 LegendMM 29 3   99.40   -3 LegendNANA
02:00 -0.4 -6.0 66 LegendMM 30 2   99.31   -1 LegendNANA
03:00 -0.6 -5.0 72 LegendMM 17 8   99.28   -3 LegendNANA
04:00 -1.5 -6.1 71 LegendMM 22 3   99.23   -3 LegendNANA
05:00 -2.6 -5.6 80 LegendMM 28 4   99.19   -4 LegendNANA
06:00 -1.8 -5.7 75 LegendMM 20 5   99.16   -4 LegendNANA
07:00 2.9 -1.6 72 LegendMM 24 20   99.14     LegendNANA
08:00 6.2 -1.6 57 LegendMM 26 35   99.22     LegendNANA
09:00 5.9 -3.5 51 LegendMM 30 28   99.38     LegendNANA
10:00 5.5 -4.0 50 LegendMM 28 33   99.51     LegendNANA
11:00 5.1 -5.0 48 LegendMM 29 27   99.59     LegendNANA
12:00 5.8 -4.4 48 LegendMM 28 25   99.61     LegendNANA
13:00 4.5 -5.6 48 LegendMM 30 23   99.69     LegendNANA
14:00 4.7 -5.8 46 LegendMM 30 23   99.78     LegendNANA
15:00 5.0 -9.2 35 LegendMM 28 24   99.81     LegendNANA
16:00 5.1 -10.7 31 LegendMM 31 22   99.85     LegendNANA
17:00 5.1 -10.8 31 LegendMM 31 18   99.86     LegendNANA
18:00 4.3 -10.5 33 LegendMM 32 14   99.92     LegendNANA
19:00 3.1 -10.6 36 LegendMM 32 10   99.95     LegendNANA
20:00 1.2 -9.7 44 LegendMM 34 9   100.01     LegendNANA
21:00 0.1 -9.5 48 LegendMM 33 9   100.04     LegendNANA
22:00 -0.9 -9.3 53 LegendMM 30 9   100.05   -4 LegendNANA
23:00 -1.8 -9.2 57 LegendMM 30 4   100.04   -3 LegendNANA

Notes on Data Quality.

Legend

  • E = Estimated
  • M = Missing
  • NA = Not Available*
  • [empty] = Indicates an unobserved value
Date modified: